Orbital Elements
Epoch 2013 July 7.0 TT = JDT 2456480.5
T 2013 July 7.95727 TT MPC
q 3.6015221 (2000.0) P Q
n 0.05485957 Peri. 210.93742 +0.23862540 -0.97046650
a 6.8596370 Node 225.28391 +0.90085333 +0.23482492
e 0.4749690 Incl. 2.85495 +0.36265851 +0.05524521
P 18.0
From 324 observations 1997 Feb. 1-2014 Feb. 16, mean residual 0".6.
|